Flag for Netherlands Weather past 2 weeks in Eindhoven, Netherlands

Now
70 °F

Scattered clouds.


Feels Like: 70 °F
Forecast: 52 / 75 °F
Wind: 9 mph from Northwest

Location: Eindhoven Airport

Current Time: Jul 30, 2014 at 8:02:09 PM

Latest Report: Jul 30, 2014 at 7:25 PM


Visibility: N/A

Pressure: 29.95 "Hg

Humidity: 64%

Dew point: 57 °F

Location of EindhovenLocation

Historic Weather in Eindhoven — Graph

°F

Eindhoven temperature yesterday

Maximum temperature yesterday: 81 °F (at 3:55 PM)
Minimum temperature yesterday: 61 °F (at 4:25 AM)
Average temperature yesterday: 71 °F

Past Weeks' High & Low Weather Summary

 TemperatureHumidityPressure
High91 °F (Jul 18, 4:25 PM)100% (Jul 16, 12:25 AM)30.18 "Hg (Jul 16, 12:25 AM)
Low55 °F (Jul 16, 5:25 AM)32% (Jul 19, 3:55 PM)29.74 "Hg (Jul 19, 10:25 PM)
Average71 °F76%29.96 "Hg
* Reported Jul 15 6:25 PM — Jul 30 6:55 PM, Eindhoven, Weather by CustomWeather, © 2014

Note: Actual official high and low records may vary slightly from our data, if they occured in-between our weather recording intervals... More about our weather records

Advertising

Eindhoven weather history for previous 24 hours

 ConditionsComfort  
Time TempWeatherWind HumidityBarometerVisibility
6:55 PM
Jul 30
70 °FPassing clouds.10 mph69%29.92 "HgN/A
6:25 PM72 °FScattered clouds.12 mph61%29.92 "HgN/A
5:55 PM72 °FScattered clouds.10 mph61%29.92 "HgN/A
5:25 PM73 °FPartly sunny.9 mph61%29.92 "HgN/A
4:55 PM72 °FBroken clouds.9 mph65%29.92 "HgN/A
4:25 PM72 °FScattered clouds.10 mph69%29.92 "HgN/A
3:55 PM72 °FBroken clouds.10 mph65%29.92 "HgN/A
3:25 PM73 °FBroken clouds.8 mph61%29.92 "HgN/A
2:55 PM73 °FPassing clouds.6 mph61%29.92 "HgN/A
2:25 PM70 °FMostly cloudy.9 mph64%29.95 "HgN/A
1:58 PM70 °FOvercast.10 mph69%29.92 "HgN/A
1:25 PM72 °FOvercast.7 mph65%29.92 "HgN/A
12:55 PM72 °FPartly sunny.8 mph61%29.92 "HgN/A
12:25 PM72 °FBroken clouds.8 mph65%29.92 "HgN/A
11:55 AM70 °FPartly sunny.7 mph69%29.92 "HgN/A
11:25 AM70 °FScattered clouds.8 mph69%29.92 "HgN/A
11:01 AM70 °FBroken clouds.7 mph73%29.92 "HgN/A
10:55 AM70 °FBroken clouds.7 mph73%29.92 "HgN/A
10:25 AM68 °FPassing clouds.7 mph78%29.92 "HgN/A
10:01 AM68 °FPartly sunny.6 mph78%29.92 "HgN/A
9:55 AM68 °FPassing clouds.7 mph73%29.92 "HgN/A
9:25 AM66 °FOvercast.7 mph78%29.92 "HgN/A
9:03 AM64 °FPassing clouds.2 mph88%29.92 "HgN/A
8:55 AM64 °FOvercast.2 mph83%29.92 "HgN/A
8:25 AM61 °FCool.3 mph94%29.89 "HgN/A
7:59 AM61 °FPartly sunny.6 mph94%29.89 "HgN/A
7:25 AM61 °FPassing clouds.7 mph94%29.89 "HgN/A
6:55 AM59 °FCool.3 mph100%29.89 "HgN/A
6:25 AM59 °FPassing clouds.5 mph100%29.89 "HgN/A
5:55 AM61 °FHigh level clouds.6 mph94%29.89 "HgN/A
5:25 AM61 °FPassing clouds.6 mph94%29.86 "HgN/A
4:55 AM61 °FPassing clouds.6 mph94%29.86 "HgN/A
4:25 AM61 °FPassing clouds.6 mph100%29.86 "HgN/A
3:55 AM61 °FPassing clouds.6 mph100%29.86 "HgN/A
3:25 AM63 °FMild.6 mph94%29.86 "HgN/A
2:55 AM63 °FMild.7 mph94%29.86 "HgN/A
2:25 AM64 °FHigh level clouds.7 mph88%29.86 "HgN/A
1:55 AM64 °FHigh level clouds.8 mph94%29.86 "HgN/A
1:25 AM64 °FPassing clouds.7 mph94%29.86 "HgN/A
12:55 AM66 °FPassing clouds.7 mph88%29.86 "HgN/A
12:25 AM66 °FPassing clouds.8 mph88%29.86 "HgN/A
11:55 PM
Jul 29
66 °FMild.10 mph88%29.86 "HgN/A
11:25 PM68 °FMild.10 mph88%29.86 "HgN/A
10:55 PM68 °FPassing clouds.9 mph88%29.86 "HgN/A
10:25 PM70 °FOvercast.9 mph83%29.86 "HgN/A
10:03 PM70 °FOvercast.12 mph83%29.86 "HgN/A
9:56 PM70 °FMostly cloudy.13 mph83%29.86 "HgN/A
9:55 PM70 °FBroken clouds.14 mph83%29.86 "HgN/A
9:25 PM72 °FPartly sunny.13 mph83%29.83 "HgN/A
8:55 PM73 °FHigh level clouds.14 mph74%29.83 "HgN/A
8:25 PM75 °FMore clouds than sun.14 mph69%29.83 "HgN/A
Weather by CustomWeather, © 2014

See weather overviewHow to use our weather pages